Birmingham, AL

4:38 PM CST on November 19, 2017 (GMT -0600)
Birmingham International

Weather History for KBHM - January, 2014

Change the Weather History Date:

Tuesday, January 28, 2014

  Actual Average Record
Temperature  
Mean Temperature 20 °F 44 °F  
Max Temperature 24 °F 55 °F 74 °F (1975)
Min Temperature 16 °F 34 °F 5 °F (1940)
Degree Days  
Heating Degree Days 45 21  
Month to date heating degree days 781 597  
Since 1 July heating degree days 1864 1644  
Moisture  
Dew Point 8 °F    
Average Humidity 58    
Maximum Humidity 80    
Minimum Humidity 36    
Precipitation  
Precipitation 0.08 in 0.16 in 2.06 in (1912)
Month to date precipitation 1.56 4.34  
Year to date precipitation 1.56 4.34  
Snow  
Snow 2.00 in 0.00 in - ()
Month to date snowfall 2.0 0.5  
Since 1 July snowfall 2.0 0.6  
Snow Depth 0.00 in    
Sea Level Pressure  
Sea Level Pressure 30.30 in    
Wind  
Wind Speed 12 mph (North)    
Max Wind Speed 18 mph    
Max Gust Speed 23 mph    
Visibility 6 miles    
Events Snow    
T = Trace of Precipitation, MM = Missing Value Source: NWS Daily Summary

Daily Weather History Graph

Daily Weather History Graph

Search for Another Location

Airport or City:

Trip Planner

Search our weather history database for the weather conditions in past years. The results will help you decide how hot, cold, wet, or windy it might be!

Date:

Astronomy

Jan. 28, 2014 Rise Set
Actual Time 6:45 AM CST 5:14 PM CST
Civil Twilight 6:19 AM CST 5:40 PM CST
Nautical Twilight 5:49 AM CST 6:10 PM CST
Astronomical Twilight 5:20 AM CST 6:40 PM CST
Moon 4:25 AM CST (1/28) 3:05 PM CST (1/28)
Length of Visible Light 11h 21m
Length of Day
10h 28m
Waning Crescent, 7% of the Moon is Illuminated
Jan 28
Waning Crescent
Jan 30
New
Feb 6
First Quarter
Feb 14
Full
Feb 22
Last Quarter

Hourly Weather History & Observations

Time (CST) Temp. Windchill Dew Point Humidity Pressure Visibility Wind Dir Wind Speed Gust Speed Precip Events Conditions
12:53 AM 24.1 °F 12.0 °F 1.0 °F 37% 30.24 in 10.0 mi North 13.8 mph 19.6 mph N/A   Mostly Cloudy
1:53 AM 23.0 °F 11.7 °F -0.0 °F 37% 30.24 in 10.0 mi North 11.5 mph 18.4 mph N/A   Mostly Cloudy
2:53 AM 23.0 °F 10.1 °F -0.0 °F 37% 30.24 in 10.0 mi North 15.0 mph 19.6 mph N/A   Overcast
3:53 AM 21.9 °F 8.2 °F -0.0 °F 38% 30.25 in 10.0 mi North 16.1 mph - N/A   Overcast
4:53 AM 21.0 °F 6.6 °F -0.0 °F 40% 30.25 in 10.0 mi North 17.3 mph - N/A   Overcast
5:53 AM 21.0 °F 7.1 °F -0.0 °F 40% 30.27 in 10.0 mi North 16.1 mph - N/A   Overcast
6:53 AM 21.0 °F 9.9 °F -0.0 °F 40% 30.30 in 10.0 mi North 10.4 mph - N/A   Overcast
7:53 AM 21.0 °F 8.1 °F -0.0 °F 40% 30.32 in 10.0 mi North 13.8 mph - N/A   Overcast
8:53 AM 21.0 °F 8.6 °F -0.0 °F 40% 30.31 in 10.0 mi North 12.7 mph - N/A   Overcast
9:53 AM 21.0 °F 9.9 °F 3.9 °F 48% 30.33 in 5.0 mi North 10.4 mph - 0.00 in Snow Light Snow
10:02 AM 19.4 °F 6.0 °F 6.8 °F 58% 30.32 in 2.5 mi NNW 13.8 mph - 0.00 in Snow Light Snow
10:09 AM 19.4 °F 7.2 °F 8.6 °F 63% 30.32 in 2.0 mi North 11.5 mph - 0.00 in Snow Light Snow
10:16 AM 19.4 °F 7.9 °F 10.4 °F 68% 30.33 in 1.5 mi North 10.4 mph - 0.00 in Snow Light Snow
10:27 AM 19.4 °F 7.9 °F 12.2 °F 74% 30.32 in 0.5 mi North 10.4 mph - 0.01 in Snow Snow
10:39 AM 19.4 °F 7.9 °F 12.2 °F 74% 30.32 in 0.5 mi North 10.4 mph - 0.01 in Snow Snow
10:53 AM 19.0 °F 7.5 °F 14.0 °F 81% 30.35 in 0.8 mi NNW 10.4 mph - 0.01 in Snow Light Snow
11:36 AM 17.6 °F 6.4 °F 14.0 °F 86% 30.31 in 1.0 mi North 9.2 mph - 0.02 in Snow Light Snow
11:53 AM 18.0 °F 3.6 °F 12.9 °F 81% 30.33 in 1.0 mi North 15.0 mph - 0.02 in Snow Light Snow
12:00 PM 17.6 °F 5.7 °F 12.2 °F 79% 30.30 in 0.8 mi North 10.4 mph - 0.00 in Snow Light Snow
12:53 PM 19.0 °F 7.5 °F 14.0 °F 81% 30.31 in 0.5 mi NNW 10.4 mph - 0.02 in Snow Snow
1:27 PM 19.4 °F 6.6 °F 14.0 °F 80% 30.28 in 0.5 mi North 12.7 mph - 0.02 in Snow Snow
1:53 PM 19.0 °F 5.0 °F 12.9 °F 77% 30.29 in 0.8 mi North 15.0 mph - 0.03 in Snow Light Snow
1:55 PM 19.4 °F 6.0 °F 12.2 °F 74% 30.27 in 1.0 mi North 13.8 mph - 0.00 in Snow Light Snow
2:04 PM 19.4 °F 6.6 °F 12.2 °F 74% 30.27 in 2.0 mi North 12.7 mph - 0.00 in Snow Light Snow
2:11 PM 19.4 °F 7.2 °F 12.2 °F 74% 30.27 in 3.0 mi NNW 11.5 mph - 0.00 in Snow Light Snow
2:53 PM 19.0 °F 7.5 °F 12.0 °F 74% 30.28 in 10.0 mi North 10.4 mph - 0.00 in   Overcast
3:12 PM 19.4 °F 6.6 °F 10.4 °F 68% 30.26 in 10.0 mi NNW 12.7 mph - N/A   Overcast
3:53 PM 19.0 °F 5.0 °F 10.0 °F 68% 30.29 in 10.0 mi NNW 15.0 mph - N/A   Overcast
4:53 PM 19.0 °F 7.5 °F 10.0 °F 68% 30.30 in 10.0 mi North 10.4 mph - N/A   Overcast
5:53 PM 19.0 °F 4.5 °F 9.0 °F 65% 30.30 in 10.0 mi North 16.1 mph 20.7 mph N/A   Overcast
6:53 PM 19.0 °F 7.5 °F 9.0 °F 65% 30.32 in 10.0 mi North 10.4 mph - N/A   Overcast
7:53 PM 19.0 °F 8.2 °F 8.1 °F 62% 30.35 in 10.0 mi NNW 9.2 mph - N/A   Overcast
8:53 PM 19.0 °F 9.0 °F 6.1 °F 57% 30.36 in 10.0 mi NNW 8.1 mph - N/A   Mostly Cloudy
9:53 PM 19.0 °F 10.0 °F 5.0 °F 54% 30.38 in 10.0 mi North 6.9 mph - N/A   Mostly Cloudy
10:53 PM 18.0 °F 5.4 °F 3.0 °F 52% 30.39 in 10.0 mi NNW 11.5 mph - N/A   Overcast
11:53 PM 16.0 °F 2.3 °F 1.9 °F 54% 30.39 in 10.0 mi North 12.7 mph - N/A   Overcast